HSCAF VTUU-VTUU

Flight info

Callsign HSCAF
Flight time 0h 41m
Altitude 1500
Route DCT
Aircraft C172/L-S/L

Departure

Time 2026-05-05 07:04
Airport Ubon Ratchathani Airport (VTUU)

Arrival

Time 2026-05-05 07:45
Airport Ubon Ratchathani Airport (VTUU)
Time Latitude Longitude Altitude Speed Heading
2026-05-05 06:57 15.24761 104.87039 407 ft 0 kts 140°
2026-05-05 06:57 15.24793 104.87067 407 ft 0 kts 140°
2026-05-05 07:01 15.24792 104.87068 407 ft 0 kts 93°
2026-05-05 07:01 15.24805 104.87058 407 ft 5 kts 316°
2026-05-05 07:01 15.24847 104.87022 406 ft 10 kts 320°
2026-05-05 07:01 15.24920 104.86962 405 ft 15 kts 328°
2026-05-05 07:02 15.24959 104.86931 404 ft 0 kts 319°
2026-05-05 07:02 15.24971 104.86921 404 ft 5 kts 320°
2026-05-05 07:02 15.25010 104.86876 403 ft 11 kts 265°
2026-05-05 07:02 15.24891 104.86717 406 ft 49 kts 231°
2026-05-05 07:03 15.24612 104.86354 473 ft 68 kts 228°
2026-05-05 07:03 15.24299 104.85970 590 ft 74 kts 224°
2026-05-05 07:03 15.23940 104.85568 709 ft 73 kts 224°
2026-05-05 07:03 15.23586 104.85196 812 ft 74 kts 229°
2026-05-05 07:04 15.23656 104.84665 819 ft 80 kts 320°
2026-05-05 07:04 15.24026 104.84226 965 ft 77 kts 308°
2026-05-05 07:04 15.24403 104.83794 1049 ft 84 kts 312°
2026-05-05 07:04 15.24897 104.83485 1113 ft 86 kts 15°
2026-05-05 07:05 15.25353 104.83913 1140 ft 93 kts 46°
2026-05-05 07:05 15.25754 104.84375 1308 ft 86 kts 47°
2026-05-05 07:05 15.26190 104.84871 1357 ft 92 kts 44°
2026-05-05 07:05 15.26649 104.85368 1331 ft 105 kts 49°
2026-05-05 07:06 15.27116 104.85986 1298 ft 108 kts 51°
2026-05-05 07:06 15.27577 104.86558 1333 ft 98 kts 44°
2026-05-05 07:06 15.28096 104.87036 1318 ft 97 kts 40°
2026-05-05 07:06 15.28591 104.87542 1206 ft 106 kts 45°
2026-05-05 07:07 15.28627 104.88218 1103 ft 108 kts 132°
2026-05-05 07:07 15.28087 104.88657 1075 ft 91 kts 140°
2026-05-05 07:07 15.27538 104.88962 988 ft 86 kts 169°
2026-05-05 07:07 15.26952 104.88966 884 ft 83 kts 178°
2026-05-05 07:08 15.26433 104.88688 646 ft 89 kts 225°
2026-05-05 07:08 15.26057 104.88220 455 ft 78 kts 232°
2026-05-05 07:08 15.25745 104.87821 398 ft 59 kts 233°
2026-05-05 07:08 15.25493 104.87496 395 ft 69 kts 230°
2026-05-05 07:09 15.25149 104.87049 477 ft 79 kts 229°
2026-05-05 07:09 15.24777 104.86579 566 ft 88 kts 227°
2026-05-05 07:09 15.24351 104.86099 685 ft 89 kts 225°
2026-05-05 07:09 15.23944 104.85619 818 ft 88 kts 230°
2026-05-05 07:10 15.23541 104.85121 895 ft 96 kts 232°
2026-05-05 07:10 15.23153 104.84541 963 ft 99 kts 238°
2026-05-05 07:10 15.22627 104.84132 1077 ft 93 kts 179°
2026-05-05 07:10 15.22036 104.84135 1250 ft 90 kts 180°
2026-05-05 07:11 15.21431 104.83974 1376 ft 91 kts 207°
2026-05-05 07:11 15.20861 104.83668 1487 ft 93 kts 206°
2026-05-05 07:11 15.20274 104.83355 1569 ft 98 kts 206°
2026-05-05 07:11 15.19658 104.82948 1543 ft 111 kts 224°
2026-05-05 07:12 15.19268 104.82248 1540 ft 116 kts 260°
2026-05-05 07:12 15.19356 104.81410 1533 ft 116 kts 286°
2026-05-05 07:12 15.19597 104.80616 1534 ft 116 kts 291°
2026-05-05 07:12 15.20137 104.80011 1485 ft 117 kts 324°
2026-05-05 07:13 15.20756 104.79542 1608 ft 101 kts 322°
2026-05-05 07:13 15.21343 104.79079 1550 ft 107 kts 324°
2026-05-05 07:13 15.21974 104.79182 1353 ft 115 kts 75°
2026-05-05 07:13 15.21594 104.79841 1288 ft 112 kts 116°
2026-05-05 07:14 15.21567 104.80611 1265 ft 102 kts 71°
2026-05-05 07:14 15.21992 104.81197 1181 ft 104 kts 49°
2026-05-05 07:14 15.22507 104.81736 1085 ft 106 kts 34°
2026-05-05 07:14 15.23077 104.82185 1124 ft 94 kts 43°
2026-05-05 07:15 15.23401 104.82589 1456 ft 67 kts 48°
2026-05-05 07:15 15.23709 104.83001 1536 ft 79 kts 49°
2026-05-05 07:15 15.24082 104.83498 1540 ft 95 kts 50°
2026-05-05 07:15 15.24512 104.84075 1536 ft 105 kts 50°
2026-05-05 07:16 15.24982 104.84699 1527 ft 111 kts 46°
2026-05-05 07:16 15.25597 104.85197 1526 ft 113 kts 34°
2026-05-05 07:16 15.26266 104.85666 1515 ft 115 kts 33°
2026-05-05 07:16 15.26835 104.86242 1516 ft 115 kts 49°
2026-05-05 07:17 15.27342 104.86897 1514 ft 116 kts 51°
2026-05-05 07:17 15.27829 104.87543 1507 ft 109 kts 51°
2026-05-05 07:17 15.28287 104.88152 1510 ft 104 kts 51°
2026-05-05 07:17 15.28703 104.88748 1530 ft 98 kts 63°
2026-05-05 07:18 15.28570 104.89373 1551 ft 92 kts 136°
2026-05-05 07:18 15.28044 104.89769 1482 ft 96 kts 142°
2026-05-05 07:18 15.27428 104.89849 1370 ft 101 kts 218°
2026-05-05 07:18 15.26913 104.89332 1011 ft 105 kts 232°
2026-05-05 07:19 15.26472 104.88774 634 ft 97 kts 231°
2026-05-05 07:19 15.26081 104.88258 476 ft 84 kts 230°
2026-05-05 07:19 15.25737 104.87813 400 ft 71 kts 233°
2026-05-05 07:19 15.25485 104.87485 395 ft 50 kts 231°
2026-05-05 07:20 15.25186 104.87098 400 ft 82 kts 228°
2026-05-05 07:20 15.24818 104.86626 521 ft 85 kts 229°
2026-05-05 07:20 15.24410 104.86118 642 ft 92 kts 231°
2026-05-05 07:20 15.24000 104.85579 763 ft 93 kts 231°
2026-05-05 07:21 15.23675 104.85162 1147 ft 56 kts 221°
2026-05-05 07:21 15.23390 104.84770 1239 ft 65 kts 230°
2026-05-05 07:21 15.23110 104.84375 1350 ft 69 kts 228°
2026-05-05 07:21 15.22792 104.83946 1411 ft 83 kts 237°
2026-05-05 07:22 15.22649 104.83318 1414 ft 100 kts 275°
2026-05-05 07:22 15.22959 104.82647 1412 ft 108 kts 314°
2026-05-05 07:22 15.23523 104.82104 1413 ft 113 kts 320°
2026-05-05 07:22 15.24223 104.81720 1400 ft 114 kts 352°
2026-05-05 07:23 15.24962 104.81921 1393 ft 110 kts 36°
2026-05-05 07:23 15.25309 104.82275 1406 ft 107 kts 46°
2026-05-05 07:23 15.25739 104.82831 1406 ft 107 kts 50°
2026-05-05 07:23 15.26199 104.83450 1410 ft 106 kts 50°
2026-05-05 07:24 15.26650 104.84058 1407 ft 106 kts 50°
2026-05-05 07:24 15.27096 104.84660 1407 ft 106 kts 51°
2026-05-05 07:24 15.27553 104.85271 1404 ft 106 kts 51°
2026-05-05 07:24 15.27998 104.85865 1405 ft 105 kts 50°
2026-05-05 07:25 15.28433 104.86449 1300 ft 101 kts 51°
2026-05-05 07:25 15.28871 104.87037 1089 ft 102 kts 51°
2026-05-05 07:25 15.29300 104.87612 941 ft 97 kts 52°
2026-05-05 07:25 15.29698 104.88150 919 ft 89 kts 51°
2026-05-05 07:26 15.29988 104.88713 910 ft 91 kts 79°
2026-05-05 07:26 15.29847 104.89307 935 ft 87 kts 120°
2026-05-05 07:26 15.29406 104.89721 936 ft 78 kts 139°
2026-05-05 07:26 15.28956 104.90050 908 ft 78 kts 141°
2026-05-05 07:27 15.28517 104.90370 911 ft 75 kts 140°
2026-05-05 07:27 15.28044 104.90615 891 ft 79 kts 171°
2026-05-05 07:27 15.27637 104.90289 886 ft 81 kts 233°
2026-05-05 07:27 15.27300 104.89819 908 ft 83 kts 230°
2026-05-05 07:28 15.26924 104.89344 805 ft 88 kts 230°
2026-05-05 07:28 15.26548 104.88865 637 ft 83 kts 231°
2026-05-05 07:28 15.26195 104.88409 504 ft 81 kts 231°
2026-05-05 07:28 15.25841 104.87946 414 ft 81 kts 232°
2026-05-05 07:29 15.25534 104.87548 395 ft 55 kts 229°
2026-05-05 07:29 15.25293 104.87238 398 ft 67 kts 231°
2026-05-05 07:29 15.24949 104.86788 446 ft 84 kts 231°
2026-05-05 07:29 15.24584 104.86305 564 ft 86 kts 230°
2026-05-05 07:30 15.24202 104.85807 659 ft 93 kts 230°
2026-05-05 07:30 15.23432 104.84816 1024 ft 86 kts 230°
2026-05-05 07:30 15.23223 104.84259 1170 ft 84 kts 268°
2026-05-05 07:31 15.23397 104.83704 1324 ft 81 kts 308°
2026-05-05 07:31 15.23822 104.83275 1402 ft 91 kts 319°
2026-05-05 07:31 15.24347 104.82822 1408 ft 103 kts 322°
2026-05-05 07:31 15.24924 104.82327 1410 ft 110 kts 321°
2026-05-05 07:32 15.25652 104.82076 1403 ft 112 kts
2026-05-05 07:32 15.26345 104.82408 1400 ft 112 kts 43°
2026-05-05 07:32 15.26858 104.83035 1403 ft 113 kts 51°
2026-05-05 07:32 15.27331 104.83682 1407 ft 111 kts 52°
2026-05-05 07:33 15.27793 104.84321 1403 ft 108 kts 52°
2026-05-05 07:33 15.28240 104.84938 1404 ft 106 kts 51°
2026-05-05 07:33 15.28683 104.85545 1405 ft 104 kts 51°
2026-05-05 07:33 15.29125 104.86151 1406 ft 105 kts 51°
2026-05-05 07:34 15.29567 104.86759 1389 ft 107 kts 52°
2026-05-05 07:34 15.30012 104.87372 1308 ft 105 kts 52°
2026-05-05 07:34 15.30274 104.88042 1263 ft 91 kts 90°
2026-05-05 07:34 15.30039 104.88616 1207 ft 85 kts 130°
2026-05-05 07:35 15.29602 104.88989 1198 ft 77 kts 138°
2026-05-05 07:35 15.29174 104.89312 1205 ft 73 kts 139°
2026-05-05 07:35 15.28758 104.89613 1207 ft 71 kts 140°
2026-05-05 07:35 15.28336 104.89887 1191 ft 72 kts 153°
2026-05-05 07:36 15.27852 104.89925 1139 ft 74 kts 184°
2026-05-05 07:36 15.27333 104.89735 984 ft 82 kts 212°
2026-05-05 07:36 15.26911 104.89317 765 ft 87 kts 230°
2026-05-05 07:36 15.26548 104.88858 610 ft 78 kts 234°
2026-05-05 07:37 15.26217 104.88425 513 ft 74 kts 230°
2026-05-05 07:37 15.25885 104.88004 408 ft 75 kts 231°
2026-05-05 07:37 15.25612 104.87646 395 ft 52 kts 234°
2026-05-05 07:37 15.25345 104.87304 397 ft 76 kts 230°
2026-05-05 07:38 15.24981 104.86824 526 ft 81 kts 231°
2026-05-05 07:38 15.24648 104.86400 709 ft 76 kts 229°
2026-05-05 07:38 15.24287 104.85943 752 ft 90 kts 230°
2026-05-05 07:38 15.23867 104.85409 841 ft 97 kts 229°
2026-05-05 07:39 15.23437 104.84856 961 ft 99 kts 230°
2026-05-05 07:39 15.23011 104.84296 1096 ft 99 kts 236°
2026-05-05 07:39 15.22866 104.83625 1216 ft 97 kts 278°
2026-05-05 07:39 15.23163 104.83027 1353 ft 94 kts 314°
2026-05-05 07:40 15.23672 104.82545 1396 ft 102 kts 319°
2026-05-05 07:40 15.24243 104.82054 1403 ft 110 kts 320°
2026-05-05 07:40 15.24900 104.81634 1394 ft 111 kts 347°
2026-05-05 07:40 15.25636 104.81757 1392 ft 106 kts 31°
2026-05-05 07:41 15.26141 104.82279 1400 ft 102 kts 50°
2026-05-05 07:41 15.26576 104.82862 1408 ft 100 kts 51°
2026-05-05 07:41 15.27004 104.83443 1412 ft 101 kts 51°
2026-05-05 07:41 15.27428 104.84026 1411 ft 101 kts 51°
2026-05-05 07:42 15.27857 104.84614 1405 ft 101 kts 52°
2026-05-05 07:42 15.28282 104.85197 1408 ft 102 kts 51°
2026-05-05 07:42 15.28712 104.85784 1410 ft 102 kts 51°
2026-05-05 07:42 15.29139 104.86365 1407 ft 101 kts 51°
2026-05-05 07:43 15.29528 104.86975 1402 ft 102 kts 69°
2026-05-05 07:43 15.29485 104.87691 1318 ft 104 kts 112°
2026-05-05 07:43 15.29006 104.88230 1281 ft 93 kts 139°
2026-05-05 07:43 15.28458 104.88652 1073 ft 99 kts 142°
2026-05-05 07:44 15.27959 104.89028 1030 ft 85 kts 141°
2026-05-05 07:44 15.27466 104.89317 992 ft 76 kts 163°
2026-05-05 07:44 15.26959 104.89240 887 ft 79 kts 206°
2026-05-05 07:44 15.26534 104.88854 682 ft 83 kts 233°
2026-05-05 07:45 15.26191 104.88397 502 ft 75 kts 233°
2026-05-05 07:45 15.25866 104.87981 414 ft 73 kts 230°
2026-05-05 07:45 15.25586 104.87616 396 ft 53 kts 233°
2026-05-05 07:45 15.25389 104.87360 396 ft 37 kts 233°
2026-05-05 07:46 15.25247 104.87177 399 ft 28 kts 230°
2026-05-05 07:46 15.25132 104.87030 401 ft 24 kts 230°
2026-05-05 07:46 15.25027 104.86913 403 ft 18 kts 182°
2026-05-05 07:46 15.24945 104.86942 405 ft 7 kts 142°
2026-05-05 07:47 15.24902 104.86978 405 ft 9 kts 139°
2026-05-05 07:47 15.24845 104.87010 406 ft 6 kts 195°
2026-05-05 07:47 15.24820 104.86991 407 ft 6 kts 222°
2026-05-05 07:47 15.24769 104.86927 407 ft 13 kts 227°
2026-05-05 07:48 15.24731 104.86896 407 ft 2 kts 140°
2026-05-05 07:48 15.24714 104.86911 407 ft 6 kts 143°
2026-05-05 07:48 15.24682 104.86938 407 ft 0 kts 141°